• In Uzbekistan
  • List of Countries
  • For 7 days
  • Water Temperature
  • Weather Map
  • Weather Widgets
  • user-avatar
    Login

    Hourly Weather La-Plata

    Today, 24 February, Monday

    Time Temperature Precipitation Wind Pressure Humidity
    00:00 +20°C° 0 mm 3 mps 758 mmHg 74%
    01:00 +20°C° 0 mm 3 mps 757 mmHg 72%
    02:00 +20°C° 0 mm 4 mps 756 mmHg 64%
    03:00 +20°C° 0 mm 4 mps 756 mmHg 64%
    04:00 +20°C° 0 mm 4 mps 756 mmHg 65%
    05:00 +20°C° 0 mm 4 mps 756 mmHg 65%
    06:00 +21°C° 0 mm 5 mps 756 mmHg 61%
    07:00 +22°C° 0 mm 5 mps 756 mmHg 57%
    08:00 +25°C° 0 mm 5 mps 756 mmHg 54%
    09:00 +26°C° 0 mm 5 mps 756 mmHg 49%
    10:00 +28°C° 0 mm 5 mps 755 mmHg 44%
    11:00 +29°C° 0 mm 5 mps 755 mmHg 38%
    12:00 +30°C° 0 mm 5 mps 754 mmHg 35%
    13:00 +32°C° 0 mm 5 mps 753 mmHg 32%
    14:00 +33°C° 0 mm 5 mps 752 mmHg 29%
    15:00 +33°C° 0 mm 5 mps 751 mmHg 29%
    16:00 +33°C° 0 mm 4 mps 751 mmHg 28%
    17:00 +33°C° 0 mm 4 mps 751 mmHg 28%
    18:00 +30°C° 0 mm 4 mps 751 mmHg 31%
    19:00 +29°C° 0 mm 3 mps 751 mmHg 34%
    20:00 +27°C° 0 mm 3 mps 751 mmHg 38%
    21:00 +26°C° 0 mm 3 mps 752 mmHg 43%
    22:00 +26°C° 0 mm 3 mps 752 mmHg 48%
    23:00 +25°C° 0 mm 3 mps 753 mmHg 53%

    Tomorrow, 25 February, Tuesday

    Time Temperature Precipitation Wind Pressure Humidity
    00:00 +24°C° 0 mm 3 mps 753 mmHg 54%
    01:00 +22°C° 0 mm 3 mps 753 mmHg 56%
    02:00 +23°C° 0 mm 2 mps 753 mmHg 57%
    03:00 +20°C° 0 mm 3 mps 753 mmHg 60%
    04:00 +19°C° 0 mm 4 mps 754 mmHg 63%
    05:00 +17°C° 0 mm 5 mps 754 mmHg 66%
    06:00 +19°C° 0 mm 4 mps 755 mmHg 60%
    07:00 +20°C° 0 mm 4 mps 755 mmHg 55%
    08:00 +21°C° 0 mm 4 mps 756 mmHg 50%
    09:00 +24°C° 0 mm 3 mps 756 mmHg 41%
    10:00 +26°C° 0 mm 3 mps 756 mmHg 32%
    11:00 +28°C° 0 mm 2 mps 757 mmHg 23%
    12:00 +29°C° 0 mm 3 mps 756 mmHg 22%
    13:00 +30°C° 0 mm 3 mps 756 mmHg 21%
    14:00 +31°C° 0 mm 3 mps 756 mmHg 20%
    15:00 +30°C° 0 mm 4 mps 755 mmHg 25%
    16:00 +28°C° 0 mm 4 mps 755 mmHg 31%
    17:00 +27°C° 0 mm 5 mps 755 mmHg 36%
    18:00 +25°C° 0 mm 5 mps 756 mmHg 48%
    19:00 +22°C° 0 mm 6 mps 756 mmHg 59%
    20:00 +20°C° 0 mm 6 mps 757 mmHg 70%
    21:00 +20°C° 0 mm 5 mps 757 mmHg 72%
    22:00 +19°C° 0 mm 5 mps 757 mmHg 74%
    23:00 +19°C° 0 mm 5 mps 758 mmHg 75%

    Day after tomorrow, 26 February, Wednesday

    Time Temperature Precipitation Wind Pressure Humidity
    00:00 +17°C° 0 mm 5 mps 758 mmHg 76%
    01:00 +17°C° 0 mm 4 mps 758 mmHg 76%
    02:00 +17°C° 0 mm 4 mps 759 mmHg 76%
    03:00 +15°C° 0 mm 4 mps 759 mmHg 75%
    04:00 +15°C° 0 mm 4 mps 759 mmHg 74%
    05:00 +15°C° 0 mm 4 mps 759 mmHg 73%
    06:00 +17°C° 0 mm 4 mps 760 mmHg 66%
    07:00 +18°C° 0 mm 4 mps 760 mmHg 59%
    08:00 +20°C° 0 mm 4 mps 760 mmHg 51%
    09:00 +22°C° 0 mm 3 mps 760 mmHg 43%
    10:00 +24°C° 0 mm 3 mps 760 mmHg 34%
    11:00 +26°C° 0 mm 3 mps 760 mmHg 26%
    12:00 +27°C° 0 mm 4 mps 760 mmHg 26%
    13:00 +28°C° 0 mm 4 mps 759 mmHg 26%
    14:00 +28°C° 0 mm 5 mps 759 mmHg 26%
    15:00 +27°C° 0 mm 5 mps 759 mmHg 30%
    16:00 +26°C° 0 mm 5 mps 759 mmHg 35%
    17:00 +25°C° 0 mm 5 mps 759 mmHg 39%
    18:00 +22°C° 0 mm 4 mps 759 mmHg 47%
    19:00 +21°C° 0 mm 4 mps 759 mmHg 54%
    20:00 +19°C° 0 mm 4 mps 760 mmHg 61%
    21:00 +19°C° 0 mm 4 mps 760 mmHg 63%
    22:00 +19°C° 0 mm 3 mps 760 mmHg 66%
    23:00 +18°C° 0 mm 3 mps 760 mmHg 68%

    27 February, Thursday

    Time Temperature Precipitation Wind Pressure Humidity
    00:00 +18°C° 0 mm 3 mps 760 mmHg 69%
    01:00 +18°C° 0 mm 3 mps 760 mmHg 69%
    02:00 +18°C° 0 mm 3 mps 759 mmHg 70%
    03:00 +18°C° 0 mm 3 mps 759 mmHg 69%
    04:00 +18°C° 0 mm 3 mps 759 mmHg 67%
    05:00 +18°C° 0 mm 3 mps 759 mmHg 66%
    06:00 +20°C° 0 mm 3 mps 760 mmHg 59%
    07:00 +21°C° 0 mm 4 mps 760 mmHg 52%
    08:00 +23°C° 0 mm 4 mps 760 mmHg 45%
    09:00 +26°C° 0 mm 4 mps 760 mmHg 39%
    10:00 +28°C° 0 mm 4 mps 759 mmHg 33%
    11:00 +29°C° 0 mm 4 mps 759 mmHg 27%
    12:00 +30°C° 0 mm 4 mps 759 mmHg 26%
    13:00 +32°C° 0 mm 4 mps 758 mmHg 24%
    14:00 +33°C° 0 mm 4 mps 757 mmHg 22%
    15:00 +33°C° 0 mm 4 mps 757 mmHg 22%
    16:00 +31°C° 0 mm 3 mps 757 mmHg 22%
    17:00 +31°C° 0 mm 3 mps 756 mmHg 22%
    18:00 +29°C° 0 mm 3 mps 756 mmHg 25%
    19:00 +27°C° 0 mm 3 mps 757 mmHg 27%
    20:00 +26°C° 0 mm 4 mps 757 mmHg 29%
    21:00 +25°C° 0 mm 4 mps 757 mmHg 33%
    22:00 +25°C° 0 mm 5 mps 757 mmHg 37%
    23:00 +25°C° 0 mm 5 mps 757 mmHg 42%

    28 February, Friday

    Time Temperature Precipitation Wind Pressure Humidity
    00:00 +25°C° 0 mm 5 mps 756 mmHg 42%
    01:00 +23°C° 0 mm 6 mps 756 mmHg 43%
    02:00 +23°C° 0 mm 6 mps 756 mmHg 44%
    03:00 +23°C° 0 mm 6 mps 756 mmHg 45%
    04:00 +23°C° 0 mm 6 mps 756 mmHg 46%
    05:00 +23°C° 0 mm 6 mps 757 mmHg 47%
    06:00 +24°C° 0 mm 6 mps 757 mmHg 42%
    07:00 +26°C° 0 mm 7 mps 757 mmHg 38%
    08:00 +28°C° 0 mm 7 mps 757 mmHg 33%
    09:00 +30°C° 0 mm 7 mps 757 mmHg 29%
    10:00 +33°C° 0 mm 6 mps 757 mmHg 24%
    11:00 +35°C° 0 mm 6 mps 757 mmHg 20%
    12:00 +35°C° 0 mm 6 mps 757 mmHg 18%
    13:00 +36°C° 0 mm 5 mps 757 mmHg 17%
    14:00 +37°C° 0 mm 4 mps 756 mmHg 15%
    15:00 +36°C° 0 mm 4 mps 756 mmHg 16%
    16:00 +36°C° 0 mm 4 mps 755 mmHg 17%
    17:00 +35°C° 0 mm 3 mps 755 mmHg 18%
    18:00 +33°C° 0.1 mm 3 mps 756 mmHg 24%
    19:00 +30°C° 0.1 mm 4 mps 756 mmHg 30%
    20:00 +27°C° 0.1 mm 4 mps 757 mmHg 36%
    21:00 +26°C° 0.2 mm 5 mps 758 mmHg 46%
    22:00 +23°C° 0.2 mm 6 mps 759 mmHg 56%
    23:00 +22°C° 0.2 mm 7 mps 759 mmHg 67%

    29 February, Saturday

    Time Temperature Precipitation Wind Pressure Humidity
    00:00 +21°C° 0.2 mm 6 mps 759 mmHg 70%
    01:00 +21°C° 0.2 mm 5 mps 759 mmHg 72%
    02:00 +20°C° 0.2 mm 5 mps 760 mmHg 75%
    03:00 +20°C° 0.2 mm 4 mps 760 mmHg 77%
    04:00 +20°C° 0.2 mm 4 mps 760 mmHg 80%
    05:00 +20°C° 0.2 mm 4 mps 761 mmHg 82%
    06:00 +21°C° 0.1 mm 5 mps 761 mmHg 81%
    07:00 +22°C° 0.1 mm 5 mps 762 mmHg 80%
    08:00 +22°C° 0.1 mm 6 mps 762 mmHg 79%
    09:00 +24°C° 0 mm 7 mps 763 mmHg 70%
    10:00 +27°C° 0 mm 7 mps 763 mmHg 62%
    11:00 +28°C° 0 mm 8 mps 763 mmHg 53%
    12:00 +28°C° 0 mm 8 mps 763 mmHg 51%
    13:00 +29°C° 0 mm 8 mps 762 mmHg 50%
    14:00 +29°C° 0 mm 8 mps 762 mmHg 48%
    15:00 +28°C° 0 mm 8 mps 762 mmHg 51%
    16:00 +27°C° 0 mm 8 mps 762 mmHg 54%
    17:00 +26°C° 0 mm 8 mps 762 mmHg 57%
    18:00 +23°C° 0 mm 8 mps 762 mmHg 65%
    19:00 +21°C° 0 mm 7 mps 763 mmHg 72%
    20:00 +18°C° 0 mm 7 mps 763 mmHg 80%
    21:00 +18°C° 0 mm 7 mps 763 mmHg 81%
    22:00 +18°C° 0 mm 7 mps 764 mmHg 83%
    23:00 +19°C° 0 mm 6 mps 764 mmHg 85%
    Show more